Regional Weather Roundup
Issued by NWS

Home | Current Version | Previous Version | Text Only | Print | Product List | Glossary Off
Versions: 1 2 3 4 5 6 7 8 9 10 11 12 13 14 15 16 17 18 19 20 21 22 23 24 25 26 27 28 29 30 31 32 33 34 35 36 37 38 39 40 41 42 43 44 45 46 47 48 49 50

000
ASUS43 KMPX 170610
RWRMN
WEATHER ROUNDUP FOR MINNESOTA
NATIONAL WEATHER SERVICE TWIN CITIES/CHANHASSEN MN
100 AM CDT WED SEP 17 2014


NOTE: "FAIR" INDICATES FEW OR NO CLOUDS BELOW 12,000 FEET WITH NO
SIGNIFICANT WEATHER AND/OR OBSTRUCTIONS TO VISIBILITY. N/A MEANS
CURRENT SKY AND/OR WEATHER CONDITIONS ARE NOT AVAILABLE.

MNZ060>063-068>070-170700-
   Twin Cities Metro

CITY           SKY/WX    TMP DP  RH WIND       PRES   REMARKS
TWIN CITIES    CLOUDY    56  47  71 E5        29.99F
6HR MIN TEMP:  56; 6HR MAX TEMP:  65;

ST PAUL        CLOUDY    54  50  86 SE3       30.00F
CRYSTAL        CLOUDY    57  46  66 S6        29.97F
BLAINE         CLOUDY    55  50  82 CALM      29.98F
LAKEVILLE      CLOUDY    52  48  87 CALM      30.00F
EDEN PRAIRIE   CLOUDY    57  48  72 S6        29.98F
6HR MIN TEMP:  55; 6HR MAX TEMP:  64;

SOUTH ST PAUL  MOCLDY    55  49  83 CALM      29.99F
LAKE ELMO      MOCLDY    46  45  93 CALM      30.01F
$$
MNZ001>005-007-008-013>017-022>024-027-028-170700-
   Northwest Minnesota

CITY           SKY/WX    TMP DP  RH WIND       PRES   REMARKS
BEMIDJI        CLEAR     49  41  74 S5        29.93F
HALLOCK        CLEAR     46  43  87 CALM      29.89R
ROSEAU         PTCLDY    54  45  71 SW10      29.88S
WARROAD        PTCLDY    55  45  67 SW12G17   29.87F
THIEF RVR FALL CLEAR     48  43  81 S8        29.91S
CROOKSTON      CLEAR     46  43  87 S6        29.92S
FOSSTON        CLEAR     45  39  81 S7        29.93F
DETROIT LAKES  CLEAR     54  46  76 SE5       29.95S
MOORHEAD       PTCLDY    55  50  82 SE6       29.92S
PARK RAPIDS    CLEAR     48  42  80 SE3       29.95F
MAHNOMEN       FAIR      49  43  80 SE5       29.92F
$$
MNZ006-009>011-018-025>026-170700-
   North Central Minnesota

CITY           SKY/WX    TMP DP  RH WIND       PRES   REMARKS
BAUDETTE       MOCLDY    53  44  71 SW10      29.87F
FLAG ISLAND    PTCLDY    57  46  67 SW14      29.82F
INTL FALLS     CLOUDY    52  47  83 SW7       29.87F
6HR MIN TEMP:  50; 6HR MAX TEMP:  56; 6HR PCP: TRACE;

WASKISH        PTCLDY    54  43  66 CALM      29.91S
BIG FORK       PTCLDY    45  43  93 S2        29.93F
LONGVILLE      CLEAR     48  43  81 CALM      29.95F
GRAND RAPIDS   CLEAR     52  39  62 S6        29.95F
CRANE LAKE     CLOUDY    52  48  87 S5        29.90F
ORR            CLOUDY    54  43  66 CALM      29.88F
COOK           MOCLDY    54  45  71 SW7       29.92F
WALKER         FAIR      49  42  74 CALM      29.95S
$$
MNZ012-019>021-037-170700-
   Northeast Minnesota

CITY           SKY/WX    TMP DP  RH WIND       PRES   REMARKS
DULUTH         PTCLDY    50  42  74 W8        29.96F
6HR MIN TEMP:  50; 6HR MAX TEMP:  63;

ELY            CLOUDY    52  45  76 S6        29.92F
HIBBING        PTCLDY    45  41  86 CALM      29.94F
EVELETH        MOCLDY    52  43  71 SW5       29.95F
DULUTH HARBOR  PTCLDY    54  46  76 SW8       29.96F
TWO HARBORS    MOCLDY    52  45  76 E5        29.94S
SILVER BAY     CLOUDY    46  46 100 NE5       29.95F
GRAND MARAIS     N/A     49  43  80 NE9       29.97F
G MARAIS ARPRT MOCLDY    43  37  81 E3        29.97F
$$
MNZ029>031-032-039>041-046>048-054>057-064-170700-
   West Central Minnesota

CITY           SKY/WX    TMP DP  RH WIND       PRES   REMARKS
FERGUS FALLS   CLEAR     54  45  71 SE7       29.93F
WHEATON        CLEAR     48  46  93 SE7       29.94S
MORRIS         CLEAR     52  48  87 SE7       29.93S
ALEXANDRIA     MOCLDY    52  47  83 SE7       29.96F
ELBOW LAKE     FAIR      52  47  82 SE6       29.93F
WADENA         CLEAR     50  45  81 E5        29.94F
GLENWOOD       PTCLDY    50  46  87 CALM      29.96F
APPLETON       CLEAR     59  48  67 S7        29.93F
BENSON         CLEAR     52  48  87 CALM      29.95S
ORTONVILLE     CLEAR     54  48  82 SE3       29.93S
MADISON        MOCLDY    59  52  77 SE5       29.94F
WILLMAR        FAIR      57  48  72 CALM      29.96F
$$
MNZ033>034-036-042>043-049>051-058-059-170700-
   Central Minnesota

CITY           SKY/WX    TMP DP  RH WIND       PRES   REMARKS
ST CLOUD       CLOUDY    55  47  74 E3        29.97F
6HR MIN TEMP:  54; 6HR MAX TEMP:  63;

SAUK CENTRE    FAIR      47  45  93 S3        29.96F
PAYNESVILLE    PTCLDY    47  46  96 CALM      29.97F
AITKIN         CLEAR     45  39  81 CALM      29.95F
PINE RIVER     CLEAR     41  39  93 CALM      29.99F
BRAINERD       MOCLDY    45  43  93 CALM      29.97F
STAPLES        PTCLDY    50  45  81 CALM      29.96F
LONG PRAIRIE   FAIR      46  45  93 CALM      29.96F
LITTLE FALLS   CLEAR     48  43  81 CALM      29.97F
LITCHFIELD     CLOUDY    61  52  72 CALM      29.97F
BUFFALO        MOCLDY    55  47  73 CALM      29.98F
MAPLE LAKE     CLOUDY    56  50  80 S3        29.98F
$$
MNZ037-044-045-052-053-170700-
   East Central Minnesota

CITY           SKY/WX    TMP DP  RH WIND       PRES   REMARKS
PRINCETON      CLOUDY    52  48  87 SE2       29.98F
MORA           CLOUDY    43  43 100 CALM      30.00F
CAMBRIDGE      PTCLDY    54  43  66 CALM      29.97F
RUSH CITY      PTCLDY    43  42  95 CALM      30.00S
MOOSE LAKE     CLEAR     41  39  93 CALM      29.96F FOG
HINCKLEY       FAIR      39  39 100 CALM      29.99S
CLOQUET        PTCLDY    52  43  71 SW5       29.96F
MCGREGOR       CLEAR     46  45  93 CALM      29.97F
$$
MNZ071>073-080-081-089-090-097-098-170700-
   Southwest Minnesota

CITY           SKY/WX    TMP DP  RH WIND       PRES   REMARKS
MONTEVIDEO     MOCLDY    59  52  77 S3        29.96F
GRANITE FALLS  MOCLDY    58  51  78 SE5       29.97F
CANBY          CLOUDY    60  49  67 S5        29.95S
MARSHALL       CLOUDY    61  48  63 S8        29.94F
REDWOOD FALLS  CLOUDY    59  51  75 S5        29.96F
OLIVIA         CLOUDY    57  50  77 SE3       29.96F
PIPESTONE      CLOUDY    57  48  72 S5        29.96F
WINDOM         CLOUDY    57  48  72 S5        29.98F
WORTHINGTON    CLOUDY    57  46  67 S7        29.99S
JACKSON        CLOUDY    54  46  76 S5        29.99F
TRACY          CLOUDY    59  50  73 S8        29.96F
SLAYTON        CLOUDY    58  49  73 CALM      29.98F
$$
MNZ065>067-074>077-082>085-091>093-170700-
   South Central Minnesota

CITY           SKY/WX    TMP DP  RH WIND       PRES   REMARKS
MANKATO        CLOUDY    55  45  67 S6        29.99F
NEW ULM        CLOUDY    57  52  82 S6        29.98F
ST JAMES       MOCLDY    54  48  82 SE3       29.99F
FAIRMONT       CLOUDY    54  45  71 S7        29.99F
GLENCOE        CLOUDY    58  47  66 CALM      29.97F
FARIBAULT      CLOUDY    57  45  62 S3        30.01F
OWATONNA       CLOUDY    55  46  71 S7        30.01F
WASECA         CLOUDY    52  43  71 CALM      30.02F
ALBERT LEA     PTCLDY    54  46  76 S5        30.01F
$$
MNZ078>079-086>088-094>096-170700-
   Southeast Minnesota

CITY           SKY/WX    TMP DP  RH WIND       PRES   REMARKS
ROCHESTER      PTCLDY    47  43  86 S7        30.03F
6HR MIN TEMP:  47; 6HR MAX TEMP:  59;

RED WING       CLOUDY    48  46  93 CALM      30.00F
STANTON        CLOUDY    54  47  75 S5        29.99F
DODGE CENTER   CLOUDY    52  48  87 S6        30.02F
WINONA         CLEAR     48  46  93 CALM      30.04S
AUSTIN         PTCLDY    48  45  87 CALM      30.02F
PRESTON        CLEAR     49  46  91 SW3       30.05R
$$
ABBREVIATIONS USED IN REMARKS
   TC - TEMPERATURES IN CELSIUS
  WCI - WIND CHILL INDEX
   HX - HEAT INDEX
  VSB - VISIBILITY
$$



USA.gov is the U.S. government's official web portal to all federal, state and local government web resources and services.